DELTA 1 DEB, 2707

Orbit data source: Space-Track

DELTA 1 DEB, 2707 is space debris in SSO originally from a launch on Thu, 26 Jan 1967 UTC launched from the Air Force Western Test Range (AFWTR). Debris objects in space refer to the collection of defunct objects orbiting the Earth. Examples of debris include non-operational satellites, rocket bodies, and fragments generated from explosions, collisions, or faulty payload assembly.

Loading next visibility...
DELTA 1 DEB details
Identifier
2707, 1967-006D
Orbit
SSO
Last TLE update22 hours ago
Origin
Flag of USGSFC (US)
ManufacturerUnknown
MissionSpacecraft
Bus & MotorUnknown
MassUnknown
Launch date (UTC)
1967-01-26 (58 years ago)
Launch vehicleUnknown
Launch site
Air Force Western Test Range (AFWTR)
Object type
Payload
Rocket body
Debris
Shape & HBRUnknown
Radar Cross SectionSmall (<0.1 m²)

Expand to show TLE details & history

TLE from 22 hours ago
0 DELTA 1 DEB
1 02707U 67006D   24355.72085191  .00000008  00000-0  23864-3 0  9991
2 02707 101.8226 289.2127 0149395  21.4339  43.0216 12.79372291702853
Epoch: 2024-12-20T17:18Z
Definitive object data (Epoch: 2024-12-20T17:18:01.605Z)
Latitude63.1704°
Longitude-84.39261°
Altitude1,271.137 km
Speed7.265 km/s
True Right ascension17h 39m 35s
True Declination63° 02' 27"
Sunlit
Object was in daylight at TLE epoch
Visualization TLE readout
Latitude21.5678°
Longitude-63.82777°
Altitude1,231.08 km
Speed7.295 km/s
Apparent Right ascension21h 47m 18s
Apparent Declination-10° 46' 53"
Sunlit
Object is in daylight
Visualization observer readout
Local Sidereal Time14:38:18
Azimuth87.349° E
Elevation-20.087°
Doppler factor1
Orbital elements
Apogee altitude1,456.834 km
Perigee altitude1,226.179 km
Semi-major axis7,719.644 km
Eccentricity0.0149395
Inclination101.8226°
RAAN289.2127°
Arg. of periapsis21.4339°
True anomaly44.20569°
Mean anomaly43.0216°
Eccentric anomaly43.61202°
Mean motion3.19998 °/min
BSTAR0.00023864
Orbital period112.5 mins
Loading maneuver chart data...
Loading historical data...
Loading historical data...
Loading historical data...
Loading historical data...
Loading historical data...
Loading historical data...
Loading historical data...
Other satellites on launch #6 in the year 1967 (1967-01-26 UTC)

DELTA 1 DEB Visibility forecast

Observer location: undefined°, undefined

Span
Click to sort rows by Start time (UTC) header in descending order
Start Az.
Max El. time (UTC)
Max El. Az.
Max El.
End time (UTC)
End Az.
7 mins2024-12-21 17:33:59.544Z82.418° E2024-12-21 17:37:59.544Z48.137° ENE15.09°2024-12-21 17:40:59.544Z22.2° NNE
13 mins2024-12-21 19:20:59.544Z153.37° SSE2024-12-21 19:26:59.544Z84.988° E44.277°2024-12-21 19:33:59.544Z345.683° N
8 mins2024-12-21 21:14:59.544Z234.709° WSW2024-12-21 21:17:59.544Z262.376° W17.31°2024-12-21 21:22:59.544Z307.023° NW
9 mins2024-12-22 07:09:59.544Z57.283° ENE2024-12-22 07:13:59.544Z90.811° ESE18.55°2024-12-22 07:18:59.544Z131.805° SE
14 mins2024-12-22 08:58:59.544Z15.429° NNE2024-12-22 09:04:59.544Z340.346° N44.507°2024-12-22 09:12:59.544Z203.598° SW
9 mins2024-12-22 10:50:59.544Z341.22° N2024-12-22 10:54:59.544Z307.14° NW18.042°2024-12-22 10:59:59.544Z268.13° W
|